Regional Weather Roundup
Issued by NWS Midland/Odessa, TX

Skip options and go directly to product.
Home | Oldest Version | Next Version | Current Version | All | Text Only | Save Text | Print | Product List | Glossary On

Skip product version selection by date and time.   
925
ASUS44 KMAF 041501
RWRMAF
MIDLAND AREA WEATHER ROUNDUP
NATIONAL WEATHER SERVICE MIDLAND TX
1000 AM CDT FRI SEP 04 2015

...IN SOUTHWEST TEXAS AND SOUTHEAST NEW MEXICO...

CITY           SKY/WX    TMP DP  RH WIND       PRES   REMARKS
ALPINE         SUNNY     78  54  43 SW8       30.13S
ANDREWS        FAIR      79  62  56 S14G21    30.02R
ARTESIA        MOSUNNY   79  52  38 S8        30.01S
BIG SPRING     SUNNY     78  64  62 S16       30.02S
CARLSBAD       MOSUNNY   81  53  37 SE10      29.98R
DRYDEN           N/A     81  69  67 S8        29.97R
FORT STOCKTON  SUNNY     81  61  50 S16       29.99R
GUAD PASS      PTSUNNY   74  52  46 SW8       30.15R
HOBBS          SUNNY     77  59  53 SE16      30.04R
MARFA          SUNNY     73  54  49 S3        30.12R
MIDLAND AIRPK  SUNNY     79  64  59 S12       30.00S
MIDLAND INTL   SUNNY     81  64  56 S15       30.00R
ODESSA         SUNNY     81  63  54 S15       30.01R
PECOS          SUNNY     77  55  47 E9        29.96R
PRESIDIO       FAIR      83  56  39 MISG      29.97S
SEMINOLE       SUNNY     75  59  55 S7        30.04R
SNYDER         SUNNY     77  64  65 S10       30.00S
WINK           SUNNY     80  62  54 SE16      29.97R
$$
...OTHER STATIONS IN TEXAS...

CITY           SKY/WX    TMP DP  RH WIND       PRES   REMARKS
ABILENE        SUNNY     82  67  60 S14G22    29.98S
AMARILLO       MOSUNNY   78  56  46 S13       30.01S
AUSTIN         PTSUNNY   82  73  74 VRB7      29.96R
BROWNSVILLE    RAIN      82  76  81 SE9       29.91R
CORPUS CHRISTI MOSUNNY   87  75  67 S14       29.92S
DALLAS FTW     MOSUNNY   84  72  67 S6        29.96S
DEL RIO        SUNNY     82  72  71 SE12      29.92R
EL PASO        CLOUDY    79  57  46 S5        30.03R
HOUSTON INT    PTSUNNY   85  76  74 CALM      29.96S
LUBBOCK        MOSUNNY   79  56  45 S12       30.02R
SAN ANGELO     SUNNY     80  69  69 S12       29.98R
SAN ANTONIO    PTSUNNY   82  71  69 S8        29.96R
WACO           SUNNY     83  72  69 S8        29.96S
WICHITA FALLS  NOT AVBL
$$
...OTHER LOCATIONS IN NEW MEXICO...

CITY           SKY/WX    TMP DP  RH WIND       PRES   REMARKS
ALAMAGORDO     PTSUNNY   73  54  49 SE6       30.07R
ALBUQUERQUE    LGT RAIN  71  49  45 S7        30.13R
CANNON AFB     MOSUNNY   76  52  42 S10       30.05R
CLOVIS         PTSUNNY   79  50  36 SW13G18   30.06S
HOLLOMAN AFB   CLOUDY    74  53  47 CALM      30.04R
ROSWELL        MOSUNNY   77  51  40 S7        30.01R
RUIDOSO        PTSUNNY   66  50  55 CALM      30.24R
SANTA FE       CLOUDY    68  44  42 VRB3      30.17S
TRUTH OR CONSE CLOUDY    68  58  70 CALM      30.10R
TUCUMCARI      PTSUNNY   77  51  40 SW9       30.00R
$$

USA.gov is the U.S. government's official web portal to all federal, state and local government web resources and services.